Location: Austin
(30.3000°N, 97.7500°W)
Time: 23:31:11
(UTC-06:00)

SL-12 R/B(2) - Pass Details

Date: 04 November 2025
Orbit: 1175 x 2174 km, 63.4° (Epoch: 15 November)

Event Time Altitude Azimuth Distance (km) Brightness Sun altitude
Rises 19:32:25 0° 199° (SSW) 4,056 7.0 -24.4°
Reaches altitude 10° 19:35:01 10° 197° (SSW) 3,128 6.4 -25.0°
Maximum altitude 19:42:21 70° 115° (ESE) 1,378 4.0 -26.6°
Enters shadow 19:45:12 44° 47° (NE) 1,814 4.5 -27.2°
